Погода в Вольном

Украина / Херсонская область     46°50′24″N   34°36′43″E
темп.,
°C
ветер,
м/с
пор.,
м/с
влажн.,
%
обл.,
%
осадки,
мм/ч
давл.,
гПа
погр.,
м
24 мая, вт
вт2400:00+12ссв1172100 0.0 101010
03:00+10ссз337693 0.0 101030
06:00+10с357968 0.0 101193
09:00+16ссв464977 0.0 10121095
12:00+19с563382 0.0 10132669
15:00+19ссз453383 0.0 10132312
18:00+18ссз454242 0.0 1014917
21:00+14ссз115852 0.0 101511
25 мая, ср
ср2500:00+11юз117090 0.0 101610
03:00+12ссз226523 0.0 101712
06:00+11ссз22745 0.0 101824
09:00+17ссз23470 0.0 1019799
12:00+20сз33365 0.0 10192076
15:00+22сз443334 0.0 10182649
18:00+21ссз233658 0.0 10192006
21:00+17юв2354100 0.0 102048
26 мая, чт
чт2600:00+16юз3557100 0.0 1020119
03:00+14з366476 0.0 1020140
06:00+12з34745 0.0 102070
09:00+19юз455199 0.0 1020683
12:00+21юз7840100 0.0 10191530
15:00+17з3661100 0.1 1019292
18:00+16юз61156100 0.0 1018713
21:00+15юз510695 0.0 1018354
27 мая, пт
пт2700:00+13зюз38876 0.2 1018187
03:00+12зюз349452 0.3 101873
06:00+13зюз349240 0.0 101899
09:00+20з33665 0.0 1018547
12:00+24зсз35411 0.1 10182123
15:00+24зсз463784 0.1 10172245
18:00+24зсз344077 0.0 10151595
21:00+17юз47667 0.0 1016113
28 мая, сб
сб2800:00+16юз47656 0.0 1015157
03:00+14юз37870 0.0 1014119
06:00+14ююз38813 0.0 1014178
09:00+19ююз685115 0.0 1013528
12:00+23юз674276 0.0 1013970
15:00+25зюз563844 0.0 10121359
18:00+24юз55395 0.0 10111304
21:00+17зюз335725 0.0 101342